Miscellaneous Local Product
Issued by NWS North Platte, NE

Home | Current Version | Previous Version | Text Only | Print | Product List | Glossary On
Versions: 1 2 3 4 5 6 7 8 9 10 11 12 13 14 15 16 17 18 19 20 21 22 23 24 25 26 27 28 29 30 31 32 33 34 35 36 37 38 39 40 41 42 43 44 45 46 47 48 49 50
000
AXUS43 KLBF 032110
MISLBF


WESTERN AND NORTH CENTRAL NEBRASKA HOURLY WEATHER ROUNDUP
NATIONAL WEATHER SERVICE NORTH PLATTE NE
400 PM CDT THU SEP 03 2015

NOTE: "FAIR" INDICATES FEW OR NO CLOUDS BELOW 12,000 FEET WITH NO
SIGNIFICANT WEATHER AND/OR OBSTRUCTIONS TO VISIBILITY.

NOTE: STATIONS NOT REPORTING VARIABLES SUCH AS SKY/WEATHER OR
PRESSURE ARE PROVIDED BY THE NEBRASKA DEPARTMENT OF
ROADS...RAWS...AND APRS NETWORKS...AND ARE NOT UNDER
NATIONAL WEATHER SERVICE QUALITY CONTROL.

...OBSERVATIONS IN AND NEAR THE EASTERN PANHANDLE OF NEBRASKA...

CITY           SKY/WX    TMP DP  RH WIND       PRES   REMARKS
PINE RIDGE     CLOUDY    95  47  19 VRB6      29.79F HX  91
CHADRON        CLOUDY    96  45  17 S5        29.77F HX  92
ALLIANCE       CLOUDY    92  45  19 SW9       29.84F
SIDNEY         CLOUDY    86  45  23 W21       29.90F
CRESCENT LAKE    N/A     91  46  20 W8          N/A
BIG SPRINGS      N/A     95  52  23 E3          N/A  HX  92
$$

...OBSERVATIONS IN NORTH CENTRAL NEBRASKA...

CITY           SKY/WX    TMP DP  RH WIND       PRES   REMARKS
VALENTINE      PTSUNNY   97  46  17 SE10      29.75F HX  93
THEDFORD       PTSUNNY   96  60  30 SE9       29.79F HX  96
AINSWORTH      PTSUNNY   93  61  33 E10       29.77F HX  93
O`NEILL        MOSUNNY   91  69  47 SE13      29.78F HX  96
ORD            PTSUNNY   90  64  42 SE14G21   29.77S HX  91
BROKEN BOW     PTSUNNY   92  64  39 S13G25    29.79F HX  93
SPRINGVIEW       N/A     92  69  47 E7G15       N/A  HX  97
SARGENT          N/A     92  67  44 W3          N/A  HX  95
CHAMBERS         N/A     91  67  44 S5          N/A  HX  94
EWING            N/A     89  74  61 SE5G15      N/A  HX  98
$$

...OBSERVATIONS IN SOUTHWEST NEBRASKA AND FAR NORTHEAST COLORADO...

CITY           SKY/WX    TMP DP  RH WIND       PRES   REMARKS
WRAY           CLOUDY    97  39  13 S6        29.84F HX  93
HOLYOKE        FAIR      95  50  21 S6        29.84F HX  92
IMPERIAL       PTSUNNY   96  49  20 CALM      29.80F HX  93
OGALLALA       MOSUNNY   97  52  22 SE8       29.79F HX  94
NORTH PLATTE   MOSUNNY   93  64  38 SE10      29.77F HX  94
MCCOOK         MOSUNNY  100  54  21 SE12G21   29.75F HX  98
LEXINGTON      MOSUNNY   93  62  35 SE13      29.78F HX  94
PAXTON           N/A     94  66  39 SE5         N/A  HX  97
BRADY            N/A     92  69  46 CALM        N/A  HX  96
CALLAWAY         N/A     87  73  63 S12         N/A  HX  94
$$

...OBSERVATIONS IN CENTRAL LINCOLN COUNTY AREA...

CITY           SKY/WX    TMP DP  RH WIND       PRES   REMARKS
N.P. AIRPORT   MOSUNNY   93  64  38 SE10      29.77F HX  94
N.P. DOWNTOWN    N/A     94  64  36 MISG        N/A  HX  95
N.P. SOUTHEAST   N/A     95  62  33 S5          N/A  HX  96
N.P. HILLCREST   N/A     93  64  37 SE12        N/A  HX  94
$$

...SOME OBSERVATIONS FROM AROUND THE REGION...

CITY           SKY/WX    TMP DP  RH WIND       PRES   REMARKS
DENVER         PTSUNNY   86  42  21 NE10      29.98F
LARAMIE        LGT RAIN  62  49  62 S21G33    30.11R
CHEYENNE       LGT RAIN  75  48  38 S14G25    30.05F
SCOTTSBLUFF    CLOUDY    87  47  24 SE15      29.87F
RAPID CITY     PTSUNNY   96  49  20 S10G22    29.74F HX  93
PIERRE         MOSUNNY   98  55  23 SE22      29.68F HX  96
WINNER         FAIR     100  49  17 SE18      29.73F HX  97
SIOUX FALLS    MOSUNNY   86  70  58 SE12      29.79F HX  90
OMAHA          MOSUNNY   93  69  45 S16       29.81F HX  98
GRAND ISLAND   PTSUNNY   95  66  38 S17       29.79F HX  98
KANSAS CITY    MOSUNNY   91  67  44 S17       29.89F HX  94
WICHITA        PTSUNNY   94  63  35 S21G29    29.85F HX  95
HAYS           MOSUNNY  100  59  25 S26G35    29.78S HX 100
LIBERAL        CLOUDY    97  54  23 S17       29.85F HX  94
GOODLAND       PTSUNNY   96  47  18 SE8G18    29.82F HX  92
$$



USA.gov is the U.S. government's official web portal to all federal, state and local government web resources and services.